Location: Unspecified
(0.0000°N, 0.0000°E)
Time: 02:39:07
(UTC+00:00)

Tiros 1 despin weight - Pass Details

Date: 14 December 2018
Orbit: 594 x 642 km, 48.2° (Epoch: 16 January)

Event Time Altitude Azimuth Distance (km) Brightness Sun altitude
Rises 20:05:30 0° 193° (SSW) 2,826 ? -29.7°
Reaches altitude 10° 20:08:21 10° 175° (S) 1,921 ? -30.4°
Enters shadow 20:08:27 10° 174° (S) 1,895 ? -30.4°
